Carlsbad, NM

9:35 AM MDT on May 29, 2017 (GMT -0600)
Cavern City

Weather History for KCNM - June, 2013

Change the Weather History Date:

Tuesday, June 18, 2013

  Actual Average Record
Temperature  
Mean Temperature 78 °F -  
Max Temperature 93 °F 97 °F 109 °F (1977)
Min Temperature 64 °F 65 °F 54 °F (1961)
Cooling Degree Days 12    
Growing Degree Days 28 (Base 50)    
Moisture  
Dew Point 58 °F    
Average Humidity 52    
Maximum Humidity 87    
Minimum Humidity 30    
Precipitation  
Precipitation 0.00 in - - ()
Sea Level Pressure  
Sea Level Pressure 29.88 in    
Wind  
Wind Speed 10 mph (SE)    
Max Wind Speed 21 mph    
Max Gust Speed 29 mph    
Visibility 10 miles    
Events      
Averages and records for this station are not official NWS values.
T = Trace of Precipitation, MM = Missing Value Source: NWS Daily Summary

Daily Weather History Graph

Daily Weather History Graph

Search for Another Location

Airport or City:

Trip Planner

Search our weather history database for the weather conditions in past years. The results will help you decide how hot, cold, wet, or windy it might be!

Date:

Astronomy

Jun. 18, 2013 Rise Set
Actual Time 5:50 AM MDT 8:06 PM MDT
Civil Twilight 5:21 AM MDT 8:34 PM MDT
Nautical Twilight 4:46 AM MDT 9:09 PM MDT
Astronomical Twilight 4:09 AM MDT 9:47 PM MDT
Moon 3:06 PM MDT (6/18) 1:45 AM MDT (6/18)
Length of Visible Light 15h 13m
Length of Day
14h 16m
Waxing Gibbous, 71% of the Moon is Illuminated
Jun 18
Waxing Gibbous
Jun 23
Full
Jun 29
Last Quarter
Jul 8
New
Jul 15
First Quarter

Hourly Weather History & Observations

Time (MDT) Temp. Heat Index Dew Point Humidity Pressure Visibility Wind Dir Wind Speed Gust Speed Precip Events Conditions
12:53 AM 72.0 °F - 59.0 °F 64% 29.90 in 10.0 mi ENE 15.0 mph - N/A   Clear
1:53 AM 71.1 °F - 59.0 °F 66% 29.91 in 10.0 mi East 20.7 mph 28.8 mph N/A   Clear
2:53 AM 68.0 °F - 57.9 °F 70% 29.92 in 10.0 mi SE 5.8 mph - N/A   Clear
3:53 AM 64.9 °F - 59.0 °F 81% 29.94 in 10.0 mi South 4.6 mph - N/A   Clear
4:53 AM 64.0 °F - 59.0 °F 84% 29.96 in 10.0 mi SSW 8.1 mph - N/A   Clear
5:53 AM 64.0 °F - 60.1 °F 87% 29.97 in 10.0 mi Calm Calm - N/A   Clear
6:53 AM 64.9 °F - 60.1 °F 84% 29.99 in 10.0 mi NE 6.9 mph - N/A   Clear
7:53 AM 70.0 °F - 60.1 °F 71% 30.01 in 10.0 mi ENE 4.6 mph - N/A   Clear
8:53 AM 71.1 °F - 59.0 °F 66% 30.02 in 10.0 mi Calm Calm - N/A   Mostly Cloudy
9:53 AM 75.0 °F - 57.9 °F 55% 29.99 in 10.0 mi Variable 3.5 mph - N/A   Clear
10:53 AM 79.0 °F - 57.9 °F 48% 29.97 in 10.0 mi Variable 5.8 mph - N/A   Partly Cloudy
11:53 AM 82.9 °F 82.4 °F 57.0 °F 41% 29.94 in 10.0 mi Variable 6.9 mph - N/A   Partly Cloudy
12:53 PM 84.0 °F 83.3 °F 57.0 °F 40% 29.90 in 10.0 mi ESE 8.1 mph - N/A   Clear
1:53 PM 87.1 °F 85.7 °F 55.9 °F 35% 29.87 in 10.0 mi SE 5.8 mph 17.3 mph N/A   Clear
2:53 PM 90.0 °F 87.9 °F 55.0 °F 30% 29.84 in 10.0 mi South 10.4 mph 18.4 mph N/A   Clear
3:53 PM 91.9 °F 90.8 °F 57.9 °F 32% 29.81 in 10.0 mi SE 13.8 mph 19.6 mph N/A   Clear
4:53 PM 91.9 °F 90.8 °F 57.9 °F 32% 29.79 in 10.0 mi SSE 11.5 mph 21.9 mph N/A   Clear
5:53 PM 91.0 °F 90.0 °F 57.9 °F 33% 29.77 in 10.0 mi SSE 13.8 mph 20.7 mph N/A   Clear
6:53 PM 90.0 °F 88.8 °F 57.9 °F 34% 29.76 in 10.0 mi SSE 13.8 mph 23.0 mph N/A   Clear
7:53 PM 88.0 °F 86.7 °F 57.0 °F 35% 29.76 in 10.0 mi SSE 12.7 mph - N/A   Clear
8:53 PM 84.9 °F 83.9 °F 57.0 °F 38% 29.77 in 10.0 mi SSE 8.1 mph - N/A   Clear
9:53 PM 82.9 °F 82.4 °F 57.0 °F 41% 29.77 in 10.0 mi SSE 8.1 mph - N/A   Clear
10:53 PM 80.1 °F 80.4 °F 57.0 °F 45% 29.77 in 10.0 mi South 8.1 mph - N/A   Clear
11:53 PM 81.0 °F 81.1 °F 57.9 °F 45% 29.76 in 10.0 mi SSE 8.1 mph - N/A   Clear